Location: Newark
(34.1333°N, 7.9667°W)
Time: 03:17:16
(UTC+00:00)

Transit 2A - Pass Details

Date: 13 June 2021
Orbit: 598 x 960 km, 66.7° (Epoch: 30 July)

Event Time Altitude Azimuth Distance (km) Brightness Sun altitude
Rises 02:58:27 0° 345° (NNW) 3,057 9.7 -22.9°
Reaches altitude 10° 03:00:58 10° 357° (N) 2,193 9.0 -22.6°
Maximum altitude 03:05:21 30° 58° (ENE) 1,348 7.9 -22.0°
Drops below altitude 10° 03:10:07 10° 118° (ESE) 2,397 8.7 -21.4°
Sets 03:12:57 0° 129° (SE) 3,391 9.4 -21.1°
